Weather History for KEST - March, 2012

Change the Weather History Date:

Tuesday, March 6, 2012

  Actual Average Record
Temperature  
Mean Temperature 47 °F 28 °F  
Max Temperature 63 °F 37 °F 68 °F (2005)
Min Temperature 30 °F 20 °F -13 °F (1960)
Degree Days  
Heating Degree Days 18 37  
Month to date heating degree days 222 228  
Since 1 July heating degree days 5315 6143  
Cooling Degree Days 0 0  
Month to date cooling degree days 0 0  
Year to date cooling degree days 0 0  
Moisture  
Dew Point 36 °F    
Average Humidity 71    
Maximum Humidity 86    
Minimum Humidity 56    
Precipitation  
Precipitation 0.00 in 0.04 in 1.25 in (1961)
Month to date precipitation 0.12 0.16  
Year to date precipitation 2.04  
Sea Level Pressure  
Sea Level Pressure 29.63 in    
Wind  
Wind Speed 14 mph (South)    
Max Wind Speed 23 mph    
Max Gust Speed 30 mph    
Visibility 10 miles    
Events      
T = Trace of Precipitation, MM = Missing Value Source: NWS Daily Summary

Daily Weather History Graph

Daily Weather History Graph

Search for Another Location

Airport or City:

Trip Planner

Search our weather history database for the weather conditions in past years. The results will help you decide how hot, cold, wet, or windy it might be!

Date:

Astronomy

Mar. 06, 2012 Rise Set
Actual Time 6:45 AM CST 6:14 PM CST
Civil Twilight 6:17 AM CST 6:43 PM CST
Nautical Twilight 5:44 AM CST 7:16 PM CST
Astronomical Twilight 5:11 AM CST 7:49 PM CST
Moon 4:40 PM CST (3/6) 5:24 AM CST (3/6)
Length of Visible Light 12h 25m
Length of Day
11h 28m
Waxing Gibbous, 96% of the Moon is Illuminated
Mar 6
Waxing Gibbous
Mar 8
Full
Mar 14
Last Quarter
Mar 22
New
Mar 30
First Quarter

Hourly Weather History & Observations

Time (CST) Temp. Windchill Dew Point Humidity Pressure Visibility Wind Dir Wind Speed Gust Speed Precip Events Conditions
12:52 AM 34.0 °F 23.8 °F 27.0 °F 75% 29.81 in 10.0 mi South 16.1 mph - N/A   Clear
2:52 AM 33.1 °F 23.4 °F 27.0 °F 78% 29.74 in 10.0 mi South 13.8 mph - N/A   Clear
3:52 AM 34.0 °F 23.0 °F 27.0 °F 75% 29.70 in 10.0 mi South 18.4 mph - N/A   Clear
4:52 AM 32.0 °F 21.6 °F 26.1 °F 79% 29.67 in 10.0 mi SSE 15.0 mph - N/A   Clear
5:52 AM 33.1 °F 22.6 °F 27.0 °F 78% 29.65 in 10.0 mi South 16.1 mph - N/A   Clear
6:52 AM 30.9 °F 20.7 °F 27.0 °F 85% 29.64 in 10.0 mi South 13.8 mph - N/A   Clear
7:52 AM 32.0 °F 21.6 °F 28.0 °F 85% 29.62 in 10.0 mi South 15.0 mph - N/A   Clear
8:52 AM 37.0 °F 29.3 °F 32.0 °F 82% 29.62 in 10.0 mi South 11.5 mph - N/A   Clear
9:52 AM 45.0 °F 39.7 °F 36.0 °F 71% 29.60 in 10.0 mi SSW 10.4 mph - N/A   Clear
10:52 AM 50.0 °F - 37.0 °F 61% 29.59 in 10.0 mi SSW 19.6 mph 25.3 mph N/A   Clear
11:52 AM 53.1 °F - 39.0 °F 59% 29.60 in 10.0 mi SSW 18.4 mph 25.3 mph N/A   Clear
12:52 PM 55.9 °F - 43.0 °F 62% 29.58 in 10.0 mi SW 16.1 mph - N/A   Clear
1:52 PM 57.9 °F - 44.1 °F 60% 29.57 in 10.0 mi SSW 15.0 mph - N/A   Clear
2:52 PM 61.0 °F - 46.9 °F 60% 29.57 in 10.0 mi SSW 12.7 mph - N/A   Clear
3:52 PM 62.1 °F - 46.9 °F 58% 29.57 in 10.0 mi SSW 11.5 mph - N/A   Clear
4:52 PM 59.0 °F - 46.9 °F 64% 29.58 in 10.0 mi SSW 11.5 mph - N/A   Clear
5:52 PM 55.9 °F - 44.1 °F 64% 29.59 in 10.0 mi SSW 12.7 mph - N/A   Clear
6:52 PM 44.1 °F 38.1 °F 39.0 °F 82% 29.61 in 10.0 mi South 11.5 mph - N/A   Clear
7:52 PM 41.0 °F 34.3 °F 37.0 °F 86% 29.62 in 10.0 mi South 11.5 mph - N/A   Clear
8:52 PM 39.9 °F 32.9 °F 36.0 °F 86% 29.62 in 10.0 mi South 11.5 mph - N/A   Clear
9:52 PM 39.9 °F 32.5 °F 35.1 °F 83% 29.62 in 10.0 mi South 12.7 mph - N/A   Clear
10:52 PM 39.9 °F 33.4 °F 35.1 °F 83% 29.61 in 10.0 mi South 10.4 mph - N/A   Clear
11:52 PM 39.9 °F 32.1 °F 36.0 °F 86% 29.60 in 10.0 mi South 13.8 mph - N/A   Clear